Weather observations for the past three days for
San Diego, North Island, Naval Air Station
| Date | Time (pdt) | Wind (kph) | Vis. (km) | Weather | Sky Cond. | Temperature (ºC) | Relative Humidity | Wind Chill (°C) | Heat Index (°C) | Pressure | Precipitation (cm) | ||||||
|---|---|---|---|---|---|---|---|---|---|---|---|---|---|---|---|---|---|
| Air | Dwpt | 6 hour | altimeter (cm) | sea level (mb) | 1 hr | 3 hr | 6 hr | ||||||||||
| Max. | Min. | ||||||||||||||||
| 09 | 23:52 | S 9 | 0.00 | Overcast | OVC013 | 16.1 | 13.3 | 84% | 76 | 1013.2 | |||||||
| 09 | 22:52 | Calm | 0.00 | Overcast | OVC013 | 16.1 | 12.8 | 18.3 | 16.1 | 81% | 76.02 | 1013.3 | |||||
| 09 | 21:52 | SW 6 | 16.09 | Mostly Cloudy | BKN014 | 16.7 | 13.3 | 80% | 76.02 | 1013.3 | |||||||
| 09 | 20:52 | W 6 | 16.09 | Mostly Cloudy | BKN013 | 16.1 | 12.8 | 81% | 76 | 1013.0 | |||||||
| 09 | 19:52 | SW 7 | 12.87 | Partly Cloudy | FEW013 SCT017 | 16.1 | 12.8 | 81% | 75.95 | 1012.3 | |||||||
| 09 | 18:52 | SW 11 | 11.27 | Mostly Cloudy | SCT013 BKN017 | 17.2 | 12.8 | 76% | 75.92 | 1012.0 | |||||||
| 09 | 17:52 | SW 11 | 11.27 | Mostly Cloudy | BKN013 | 17.8 | 13.3 | 75% | 75.92 | 1012.1 | |||||||
| 09 | 16:52 | S 13 | 16.09 | A Few Clouds | FEW015 | 18.3 | 13.3 | 20 | 18.3 | 73% | 75.9 | 1011.8 | |||||
| 09 | 15:52 | S 13 | 16.09 | A Few Clouds | FEW015 | 18.9 | 13.3 | 70% | 75.92 | 1012.1 | |||||||
| 09 | 14:52 | Vrbl 7 | 16.09 | Partly Cloudy | SCT016 | 19.4 | 13.3 | 68% | 75.97 | 1012.7 | |||||||
| 09 | 13:52 | W 13 | 16.09 | A Few Clouds | FEW015 | 20 | 13.3 | 65% | 76 | 1013.1 | |||||||
| 09 | 12:52 | SW 19 | 16.09 | A Few Clouds | FEW015 | 19.4 | 13.3 | 68% | 76 | 1013.1 | |||||||
| 09 | 11:52 | W 13 | 16.09 | A Few Clouds | FEW015 | 18.9 | 12.8 | 68% | 76.02 | 1013.4 | |||||||
| 09 | 10:52 | W 13 | 16.09 | A Few Clouds | FEW015 | 18.9 | 13.3 | 18.9 | 15.6 | 70% | 76.05 | 1013.6 | |||||
| 09 | 09:52 | Vrbl 7 | 16.09 | Mostly Cloudy | BKN014 | 17.8 | 13.3 | 75% | 76.02 | 1013.6 | |||||||
| 09 | 08:52 | W 9 | 16.09 | Overcast | OVC014 | 17.2 | 13.3 | 78% | 76.05 | 1013.7 | |||||||
| 09 | 07:52 | Calm | 16.09 | Overcast | OVC011 | 16.7 | 13.3 | 80% | 76.05 | 1013.7 | |||||||
| 09 | 06:52 | W 9 | 16.09 | Overcast | OVC010 | 16.1 | 13.3 | 84% | 76.02 | 1013.6 | |||||||
| 09 | 04:52 | W 7 | 0.00 | Overcast | OVC010 | 16.1 | 13.9 | 17.2 | 16.1 | 87% | 76 | 1013.1 | |||||
| 09 | 03:52 | W 9 | 0.00 | Overcast | OVC010 | 16.7 | 13.9 | 84% | 76.02 | 1013.3 | |||||||
| 09 | 02:52 | W 6 | 0.00 | Overcast | OVC010 | 16.7 | 13.9 | 84% | 76.02 | 1013.3 | |||||||
| 09 | 01:52 | W 7 | 0.00 | Overcast | OVC010 | 16.7 | 13.9 | 84% | 76.05 | 1013.8 | |||||||
| 09 | 00:52 | W 6 | 0.00 | Overcast | OVC010 | 16.7 | 14.4 | 86% | 76.07 | 1014.1 | |||||||
| 08 | 23:52 | W 11 | 0.00 | Overcast | OVC010 | 17.2 | 14.4 | 84% | 76.1 | 1014.5 | |||||||
| 08 | 21:52 | W 11 | 9.66 | Overcast with Haze | OVC010 | 17.2 | 14.4 | 84% | 76.12 | 1014.7 | |||||||
| 08 | 20:52 | NW 13 | 9.66 | Mostly Cloudy with Haze | BKN011 | 17.8 | 14.4 | 81% | 76.1 | 1014.4 | |||||||
| 08 | 19:52 | NW 15 | 8.05 | Mostly Cloudy with Haze | BKN011 | 17.8 | 14.4 | 81% | 76.05 | 1014.0 | |||||||
| 08 | 18:52 | NW 15 | 9.66 | Partly Cloudy with Haze | SCT012 | 18.3 | 14.4 | 78% | 76.02 | 1013.5 | |||||||
| 08 | 17:52 | W 13 | 16.09 | Partly Cloudy | SCT014 | 18.3 | 14.4 | 78% | 76.02 | 1013.5 | |||||||
| 08 | 16:52 | NW 15 | 16.09 | Partly Cloudy | SCT016 | 20 | 14.4 | 20.6 | 18.3 | 70% | 76.05 | 1013.6 | |||||
| 08 | 15:52 | W 15 | 16.09 | A Few Clouds | FEW016 | 20 | 13.9 | 68% | 76.07 | 1014.0 | |||||||
| 08 | 14:52 | W 20 | 16.09 | A Few Clouds | FEW016 | 20 | 13.9 | 68% | 76.1 | 1014.6 | |||||||
| 08 | 13:52 | W 17 | 16.09 | A Few Clouds | FEW016 | 20 | 13.9 | 68% | 76.12 | 1014.7 | |||||||
| 08 | 12:52 | W 15 | 16.09 | A Few Clouds | FEW016 | 20 | 13.3 | 65% | 76.12 | 1015.0 | |||||||
| 08 | 11:52 | W 11 | 16.09 | A Few Clouds | FEW016 | 19.4 | 13.3 | 68% | 76.17 | 1015.5 | |||||||
| 08 | 10:52 | W 11 | 16.09 | Partly Cloudy | SCT015 | 18.3 | 13.3 | 18.3 | 16.1 | 73% | 76.2 | 1015.9 | |||||
| 08 | 09:52 | W 7 | 16.09 | Overcast | OVC015 | 17.8 | 13.3 | 75% | 76.23 | 1016.1 | |||||||
| 08 | 08:52 | W 6 | 16.09 | Overcast | OVC015 | 17.2 | 13.3 | 78% | 76.23 | 1016.3 | |||||||
| 08 | 07:52 | W 7 | 16.09 | Overcast | OVC014 | 16.7 | 13.3 | 80% | 76.23 | 1016.3 | |||||||
| 08 | 06:52 | SW 7 | 16.09 | Overcast | OVC014 | 16.1 | 13.3 | 84% | 76.23 | 1016.0 | |||||||
| 08 | 05:52 | Calm | 16.09 | Overcast | OVC010 | 16.1 | 13.3 | 84% | 76.17 | 1015.6 | |||||||
| 08 | 04:52 | S 6 | 16.09 | Overcast | OVC010 | 16.1 | 13.3 | 16.7 | 16.1 | 84% | 76.17 | 1015.5 | |||||
| 08 | 03:52 | S 11 | 16.09 | Overcast | OVC012 | 16.1 | 13.3 | 84% | 76.17 | 1015.4 | |||||||
| 08 | 02:52 | Calm | 16.09 | Overcast | OVC012 | 16.1 | 13.3 | 84% | 76.2 | 1015.7 | |||||||
| 08 | 01:52 | SW 6 | 16.09 | Overcast | OVC011 | 16.1 | 13.3 | 84% | 76.2 | 1015.7 | |||||||
| 08 | 00:52 | Calm | 16.09 | Overcast | OVC010 | 16.1 | 13.9 | 87% | 76.23 | 1016.2 | |||||||
| 07 | 23:52 | S 6 | 16.09 | Overcast | OVC011 | 16.7 | 13.9 | 84% | 76.25 | 1016.4 | |||||||
| 07 | 22:52 | SW 6 | 16.09 | Overcast | OVC012 | 16.7 | 13.3 | 18.9 | 16.1 | 80% | 76.25 | 1016.6 | |||||
| 07 | 21:52 | Calm | 16.09 | Overcast | OVC012 | 16.7 | 13.3 | 80% | 76.25 | 1016.5 | |||||||
| 07 | 20:52 | S 9 | 16.09 | Overcast | OVC014 | 16.7 | 13.9 | 84% | 76.2 | 1015.7 | |||||||
| 07 | 19:52 | W 7 | 16.09 | Partly Cloudy | SCT016 | 16.7 | 13.3 | 80% | 76.15 | 1015.0 | |||||||
| 07 | 18:52 | W 13 | 16.09 | A Few Clouds | FEW016 | 17.2 | 13.9 | 81% | 76.1 | 1014.5 | |||||||
| 07 | 17:52 | W 7 | 16.09 | A Few Clouds | FEW016 | 18.3 | 13.3 | 73% | 76.1 | 1014.3 | |||||||
| 07 | 16:52 | W 15 | 16.09 | Partly Cloudy | SCT016 | 18.3 | 13.3 | 20 | 18.3 | 73% | 76.1 | 1014.5 | |||||
| 07 | 15:52 | W 11 | 16.09 | Partly Cloudy | SCT016 | 18.9 | 13.3 | 70% | 76.1 | 1014.6 | |||||||
| 07 | 14:52 | W 15 | 16.09 | Partly Cloudy | SCT020 | 19.4 | 13.3 | 68% | 76.15 | 1015.1 | |||||||
| 07 | 13:52 | W 19 G 30 | 16.09 | Partly Cloudy | SCT020 | 19.4 | 13.3 | 68% | 76.17 | 1015.5 | |||||||
| 07 | 12:52 | W 19 | 16.09 | Partly Cloudy | SCT020 | 19.4 | 13.3 | 68% | 76.2 | 1015.8 | |||||||
| 07 | 11:52 | W 13 | 16.09 | Partly Cloudy | SCT020 | 20 | 13.3 | 65% | 76.23 | 1016.1 | |||||||
| 07 | 10:52 | W 13 | 16.09 | Mostly Cloudy | BKN020 | 18.3 | 13.3 | 18.9 | 14.4 | 73% | 76.25 | 1016.4 | |||||
| 07 | 09:52 | W 9 | 16.09 | Mostly Cloudy | BKN014 | 17.8 | 12.8 | 73% | 76.25 | 1016.6 | |||||||
| 07 | 08:52 | NW 6 | 16.09 | Mostly Cloudy | BKN014 | 17.2 | 12.8 | 76% | 76.28 | 1016.8 | |||||||
| 07 | 07:52 | SW 7 | 16.09 | Mostly Cloudy | BKN014 | 16.7 | 13.3 | 80% | 76.25 | 1016.6 | |||||||
| 07 | 06:52 | NW 7 | 16.09 | Mostly Cloudy | BKN014 | 16.7 | 13.3 | 80% | 76.23 | 1016.2 | |||||||
| 07 | 05:52 | Calm | 16.09 | Mostly Cloudy | BKN014 | 15 | 12.8 | 87% | 76.2 | 1016.0 | |||||||
| 07 | 04:52 | Calm | 16.09 | A Few Clouds | FEW017 | 16.1 | 12.8 | 17.2 | 16.1 | 81% | 76.2 | 1015.8 | |||||
| 07 | 03:52 | N 9 | 16.09 | A Few Clouds | FEW017 | 16.1 | 13.3 | 84% | 76.2 | 1015.9 | |||||||
| 07 | 02:52 | NW 6 | 16.09 | Partly Cloudy | SCT017 | 16.1 | 13.3 | 84% | 76.23 | 1016.2 | |||||||
| 07 | 01:52 | N 7 | 16.09 | Mostly Cloudy | BKN014 | 16.7 | 13.3 | 80% | 76.28 | 1016.7 | |||||||
| 07 | 00:52 | NW 6 | 16.09 | A Few Clouds | FEW014 | 16.7 | 13.3 | 80% | 76.3 | 1017.2 | |||||||
| Date | Time (pdt) | Wind (kph) | Vis. (km) | Weather | Sky Cond. | Air | Dwpt | Max. | Min. | Relative Humidity | Wind Chill (°C) | Heat Index (°C) | altimeter (cm) | sea level (mb) | 1 hr | 3 hr | 6 hr |
| 6 hour | |||||||||||||||||
| Temperature (ºC) | Pressure | Precipitation (cm) | |||||||||||||||